Weather History for Nacogdoches, TX

Change the Weather History Date:

Saturday, November 10, 2012

  Actual Average Record
Temperature  
Mean Temperature 68 °F -  
Max Temperature 80 °F 66 °F 84 °F (2002)
Min Temperature 57 °F 46 °F 33 °F (2000)
Cooling Degree Days 4    
Growing Degree Days 18 (Base 50)    
Moisture  
Dew Point 58 °F    
Average Humidity 72    
Maximum Humidity 94    
Minimum Humidity 47    
Precipitation  
Precipitation 0.00 in - - ()
Sea Level Pressure  
Sea Level Pressure 30.05 in    
Wind  
Wind Speed 9 mph (SSE)    
Max Wind Speed 17 mph    
Max Gust Speed 25 mph    
Visibility 10 miles    
Events      
Averages and records for this station are not official NWS values.
T = Trace of Precipitation, MM = Missing Value Source: NWS Daily Summary

Daily Weather History Graph

Daily Weather History Graph

Search for Another Location

Airport:

Trip Planner

Search our weather history database for the weather conditions in past years. The results will help you decide how hot, cold, wet, or windy it might be!

Date:

Astronomy

Nov. 10, 2012 Rise Set
Actual Time 6:42 AM CST 5:22 PM CST
Civil Twilight 6:17 AM CST 5:47 PM CST
Nautical Twilight 5:48 AM CST 6:17 PM CST
Astronomical Twilight 5:19 AM CST 6:45 PM CST
Moon 3:01 AM CST (11/10) 2:59 PM CST (11/10)
Length of Visible Light 11h 30m
Length of Day
10h 39m
Waning Crescent, 14% of the Moon is Illuminated
Nov 10
Waning Crescent
Nov 13
New
Nov 20
First Quarter
Nov 28
Full
Dec 6
Last Quarter

Hourly Weather History & Observations

Time (CST) Temp. Heat Index Dew Point Humidity Pressure Visibility Wind Dir Wind Speed Gust Speed Precip Events Conditions
12:15 AM 60.8 °F - 57.2 °F 88% 30.11 in 10.0 mi SE 6.9 mph - N/A   Clear
12:35 AM 60.8 °F - 57.2 °F 88% 30.10 in 10.0 mi SSE 5.8 mph - N/A   Partly Cloudy
12:55 AM 60.8 °F - 57.2 °F 88% 30.10 in 10.0 mi SSE 5.8 mph - N/A   Scattered Clouds
1:15 AM 60.8 °F - 57.2 °F 88% 30.10 in 10.0 mi SSE 5.8 mph - N/A   Mostly Cloudy
1:35 AM 60.8 °F - 57.2 °F 88% 30.10 in 10.0 mi SE 5.8 mph - N/A   Overcast
1:55 AM 60.8 °F - 57.2 °F 88% 30.09 in 10.0 mi SE 6.9 mph - N/A   Overcast
2:15 AM 60.8 °F - 57.2 °F 88% 30.09 in 8.0 mi SE 5.8 mph - N/A   Overcast
2:35 AM 60.8 °F - 57.2 °F 88% 30.09 in 8.0 mi SSE 8.1 mph - N/A   Overcast
2:55 AM 60.8 °F - 57.2 °F 88% 30.08 in 7.0 mi SE 8.1 mph - N/A   Overcast
3:15 AM 60.8 °F - 57.2 °F 88% 30.08 in 7.0 mi SSE 8.1 mph - N/A   Overcast
3:35 AM 59.0 °F - 55.4 °F 88% 30.07 in 8.0 mi SE 5.8 mph - N/A   Overcast
3:55 AM 59.0 °F - 55.4 °F 88% 30.07 in 8.0 mi SE 6.9 mph - N/A   Mostly Cloudy
4:15 AM 59.0 °F - 55.4 °F 88% 30.07 in 9.0 mi SSE 4.6 mph - N/A   Mostly Cloudy
4:35 AM 59.0 °F - 55.4 °F 88% 30.07 in 10.0 mi SSE 4.6 mph - N/A   Mostly Cloudy
4:55 AM 59.0 °F - 55.4 °F 88% 30.07 in 9.0 mi SSE 6.9 mph - N/A   Partly Cloudy
5:15 AM 59.0 °F - 55.4 °F 88% 30.07 in 8.0 mi SE 6.9 mph - N/A   Scattered Clouds
5:35 AM 59.0 °F - 55.4 °F 88% 30.08 in 9.0 mi SE 4.6 mph - N/A   Mostly Cloudy
6:15 AM 57.2 °F - 55.4 °F 94% 30.09 in 10.0 mi SSE 3.5 mph - N/A   Clear
6:35 AM 57.2 °F - 55.4 °F 94% 30.10 in 10.0 mi SSE 3.5 mph - N/A   Clear
6:55 AM 57.2 °F - 55.4 °F 94% 30.10 in 9.0 mi SSE 5.8 mph - N/A   Partly Cloudy
7:15 AM 59.0 °F - 55.4 °F 88% 30.10 in 10.0 mi SE 6.9 mph - N/A   Clear
7:35 AM 60.8 °F - 57.2 °F 88% 30.10 in 10.0 mi SSE 8.1 mph - N/A   Clear
7:55 AM 60.8 °F - 57.2 °F 88% 30.11 in 10.0 mi SE 8.1 mph - N/A   Clear
8:15 AM 62.6 °F - 57.2 °F 82% 30.12 in 10.0 mi SE 6.9 mph - N/A   Clear
8:35 AM 62.6 °F - 57.2 °F 82% 30.12 in 10.0 mi SSE 8.1 mph - N/A   Clear
8:55 AM 64.4 °F - 59.0 °F 83% 30.12 in 10.0 mi SSE 9.2 mph - N/A   Clear
9:15 AM 66.2 °F - 60.8 °F 83% 30.12 in 10.0 mi SSE 12.7 mph 16.1 mph N/A   Clear
9:35 AM 68.0 °F - 59.0 °F 73% 30.12 in 10.0 mi SSE 11.5 mph 20.7 mph N/A   Clear
9:55 AM 69.8 °F - 60.8 °F 73% 30.12 in 10.0 mi SE 10.4 mph - N/A   Clear
10:15 AM 71.6 °F - 60.8 °F 69% 30.12 in 10.0 mi South 13.8 mph 17.3 mph N/A   Clear
10:35 AM 73.4 °F - 60.8 °F 65% 30.11 in 10.0 mi South 12.7 mph - N/A   Clear
10:55 AM 73.4 °F - 60.8 °F 65% 30.10 in 10.0 mi SSE 12.7 mph - N/A   Partly Cloudy
11:15 AM 75.2 °F - 60.8 °F 61% 30.09 in 10.0 mi South 13.8 mph 18.4 mph N/A   Scattered Clouds
11:35 AM 75.2 °F - 60.8 °F 61% 30.08 in 10.0 mi South 13.8 mph 17.3 mph N/A   Mostly Cloudy
11:55 AM 75.2 °F - 60.8 °F 61% 30.07 in 10.0 mi South 13.8 mph 19.6 mph N/A   Mostly Cloudy
12:15 PM 75.2 °F - 60.8 °F 61% 30.05 in 10.0 mi South 12.7 mph 20.7 mph N/A   Mostly Cloudy
12:35 PM 78.8 °F - 60.8 °F 54% 30.04 in 10.0 mi South 17.3 mph 24.2 mph N/A   Mostly Cloudy
12:55 PM 78.8 °F - 60.8 °F 54% 30.03 in 10.0 mi South 15.0 mph 23.0 mph N/A   Mostly Cloudy
1:15 PM 78.8 °F - 59.0 °F 51% 30.02 in 10.0 mi South 11.5 mph 17.3 mph N/A   Mostly Cloudy
1:35 PM 78.8 °F - 57.2 °F 47% 30.01 in 10.0 mi South 15.0 mph 24.2 mph N/A   Scattered Clouds
1:55 PM 78.8 °F - 59.0 °F 51% 29.99 in 10.0 mi South 15.0 mph 25.3 mph N/A   Partly Cloudy
2:15 PM 78.8 °F - 60.8 °F 54% 29.98 in 10.0 mi SSE 12.7 mph 18.4 mph N/A   Partly Cloudy
2:35 PM 80.6 °F 81.5 °F 60.8 °F 51% 29.98 in 10.0 mi South 16.1 mph 23.0 mph N/A   Partly Cloudy
2:55 PM 78.8 °F - 60.8 °F 54% 29.98 in 10.0 mi South 12.7 mph 18.4 mph N/A   Scattered Clouds
3:15 PM 78.8 °F - 60.8 °F 54% 29.98 in 10.0 mi South 11.5 mph - N/A   Overcast
3:35 PM 78.8 °F - 60.8 °F 54% 29.98 in 10.0 mi South 10.4 mph - N/A   Mostly Cloudy
3:55 PM 78.8 °F - 59.0 °F 51% 29.98 in 10.0 mi SSE 12.7 mph - N/A   Mostly Cloudy
4:15 PM 77.0 °F - 60.8 °F 57% 29.97 in 10.0 mi South 15.0 mph 19.6 mph N/A   Scattered Clouds
4:35 PM 75.2 °F - 59.0 °F 57% 29.97 in 10.0 mi South 11.5 mph 16.1 mph N/A   Clear
4:55 PM 75.2 °F - 59.0 °F 57% 29.98 in 10.0 mi South 9.2 mph - N/A   Clear
5:15 PM 73.4 °F - 57.2 °F 57% 29.98 in 10.0 mi SSE 10.4 mph - N/A   Clear
5:35 PM 73.4 °F - 55.4 °F 53% 29.98 in 10.0 mi SSE 10.4 mph - N/A   Clear
5:55 PM 73.4 °F - 55.4 °F 53% 29.98 in 10.0 mi SSE 8.1 mph - N/A   Clear
6:15 PM 71.6 °F - 55.4 °F 57% 29.99 in 10.0 mi SSE 10.4 mph - N/A   Clear
6:35 PM 71.6 °F - 55.4 °F 57% 30.00 in 10.0 mi SSE 10.4 mph - N/A   Clear
6:55 PM 71.6 °F - 55.4 °F 57% 30.00 in 10.0 mi SSE 10.4 mph - N/A   Clear
7:15 PM 71.6 °F - 57.2 °F 60% 30.00 in 10.0 mi SSE 12.7 mph - N/A   Clear
7:35 PM 69.8 °F - 59.0 °F 68% 30.00 in 10.0 mi SSE 10.4 mph - N/A   Clear
7:55 PM 69.8 °F - 59.0 °F 68% 30.00 in 10.0 mi SSE 11.5 mph - N/A   Clear
8:15 PM 69.8 °F - 59.0 °F 68% 29.99 in 10.0 mi SSE 15.0 mph 20.7 mph N/A   Clear
8:35 PM 69.8 °F - 59.0 °F 68% 30.00 in 10.0 mi SSE 11.5 mph - N/A   Clear
8:55 PM 69.8 °F - 59.0 °F 68% 30.00 in 10.0 mi SSE 11.5 mph 17.3 mph N/A   Clear
9:35 PM 69.8 °F - 60.8 °F 73% 30.00 in 10.0 mi SSE 10.4 mph 17.3 mph N/A   Clear
10:15 PM 68.0 °F - 60.8 °F 78% 30.00 in 10.0 mi SSE 11.5 mph - N/A   Clear
10:35 PM 68.0 °F - 60.8 °F 78% 30.00 in 10.0 mi South 10.4 mph - N/A   Clear
10:55 PM 68.0 °F - 60.8 °F 78% 29.99 in 10.0 mi SSE 9.2 mph 17.3 mph N/A   Clear
11:15 PM 68.0 °F - 60.8 °F 78% 29.99 in 10.0 mi SSE 11.5 mph - N/A   Partly Cloudy
11:35 PM 68.0 °F - 60.8 °F 78% 29.98 in 10.0 mi SSE 9.2 mph - N/A   Scattered Clouds
11:55 PM 68.0 °F - 62.6 °F 83% 29.98 in 10.0 mi SSE 6.9 mph - N/A   Scattered Clouds